Location: Charbonni�res
(45.9952°N, 2.9982°E)
Time: 17:23:16
(UTC+00:00)

Gbstr 26 Del rocket - Pass Details

Date: 29 November 2020
Orbit: 493 x 1263 km, 51.8° (Epoch: 17 January)

Event Time Altitude Azimuth Distance (km) Brightness Sun altitude
Exits shadow 04:43:31 59° 91° (E) 580 3.1 -24.3°
Drops below altitude 10° 04:46:46 10° 112° (ESE) 1,746 6.4 -23.8°
Sets 04:49:03 0° 114° (ESE) 2,693 7.6 -23.4°
